RH
70 68 75 78 79 76 76 79 80 79 79 80 80 80 78 77 44 47 55 57 65 67 70 70 71 74 73 74 76 77 75 72 71
74 71 76 77 77 75 75 78 79 80 81 82 81 78 77 42 43 47 54 62 65 65 66 68 70 71 71 72 72 72 71 71 71
76 74 75 74 75 75 75 76 78 79 80 81 82 80 80 44 46 52 59 72 65 64 66 67 67 68 70 70 70 69 69 69 68
79 80 76 72 75 76 76 75 78 79 77 76 77 79 79 45 46 44 56 75 66 65 64 64 64 65 67 67 66 66 67 66 65
87 87 84 80 78 78 77 76 74 79 79 78 77 80 79 44 46 52 64 70 66 64 65 64 64 65 66 66 65 66 65 65 64
75 83 90 88 83 78 76 78 78 81 82 80 82 82 44 42 45 54 77 69 66 65 63 64 64 64 65 66 65 65 65 66 64
55 78 91 89 89 86 80 80 80 78 47 57 74 53 41 42 46 58 79 68 67 65 63 64 63 63 64 65 65 65 65 65 66
53 68 81 82 85 69 73 71 56 44 36 39 39 40 38 38 42 69 79 77 67 66 64 62 64 62 62 63 62 64 65 64 66
40 48 65 69 63 69 62 49 47 50 44 34 32 35 37 39 42 67 82 80 77 70 66 63 63 63 61 61 62 63 63 63 65
38 41 46 49 49 54 51 47 46 48 45 42 34 34 35 37 40 42 85 83 80 78 71 68 64 64 64 61 61 62 61 62 64
44 45 46 46 46 45 46 45 45 45 44 43 39 35 37 39 43 46 54 81 82 82 76 72 68 66 65 64 62 62 62 62 62
45 43 47 46 44 41 44 45 46 43 41 42 39 36 34 42 45 47 46 59 86 83 80 74 72 69 67 67 68 66 65 64 64
50 50 44 42 44 46 48 48 48 47 47 45 44 45 42 41 42 45 47 52 47 81 85 84 77 74 71 67 68 68 67 66 65
51 51 48 41 47 50 52 51 49 52 52 53 50 51 53 51 45 47 48 49 54 53 85 88 89 87 76 70 67 69 71 69 67
54 52 51 48 51 52 54 55 54 54 52 49 51 54 54 55 54 49 46 48 52 53 56 68 70 91 86 78 68 65 71 72 71
55 55 52 53 55 54 53 56 59 62 60 64 64 60 55 55 54 54 50 49 51 51 52 54 54 64 87 86 80 73 68 69 75
59 60 60 56 59 59 58 60 65 65 65 68 68 74 62 59 54 55 51 50 52 52 51 50 52 57 59 78 86 84 80 73 69
72 66 63 64 64 68 68 68 72 72 68 66 73 82 80 71 62 60 56 51 53 53 52 52 54 56 59 71 77 85 83 79 75
89 88 80 71 76 76 76 70 71 75 78 81 70 72 71 82 81 70 64 58 55 59 57 59 57 60 68 74 86 86 84 80 76
89 88 88 85 78 78 73 76 74 74 77 77 86 81 82 82 91 93 83 72 65 60 62 62 64 66 70 74 82 86 84 80 76
Wind_Speed
15 14 14 13 13 14 13 13 15 14 13 12 10 7 7 8 8 11 13 12 14 15 15 14 15 15 16 17 17 16 16 16 15
14 13 12 12 13 13 13 13 13 13 12 11 8 7 9 10 10 11 11 11 14 15 15 15 15 14 14 14 14 14 15 15 14
14 13 12 12 12 13 13 13 12 12 11 10 8 6 9 8 9 10 9 11 13 13 14 14 14 14 15 14 13 13 14 14 14
13 12 11 11 11 11 11 11 10 10 9 8 6 4 8 8 5 9 8 9 11 12 12 12 12 12 12 12 12 12 13 12 13
11 11 10 10 9 9 9 9 9 8 7 6 4 2 7 6 5 8 6 8 9 10 10 10 10 11 10 10 11 11 11 12 12
12 9 11 11 9 8 8 8 8 7 6 4 2 6 1 4 3 7 6 7 8 8 8 8 8 9 8 9 10 10 10 11 11
8 10 10 12 10 8 7 7 5 7 6 5 5 6 2 3 2 7 7 4 5 5 5 6 7 7 7 8 8 8 8 9 10
6 7 5 5 8 6 7 6 6 3 2 1 3 2 1 0 1 8 7 2 3 3 3 4 5 5 5 6 6 7 7 8 9
8 7 9 6 5 4 6 5 4 4 3 3 4 3 2 2 0 8 9 4 3 4 4 3 3 3 3 4 5 5 5 6 7
7 6 7 7 7 8 6 3 3 4 5 4 4 3 4 3 1 1 10 7 6 6 6 6 5 5 4 4 3 3 3 4 5
5 5 5 5 4 4 3 4 4 3 4 5 5 5 4 4 2 2 5 9 8 9 9 9 8 7 7 6 5 4 4 3 3
5 5 5 5 5 5 4 3 3 4 4 5 4 4 5 4 5 4 3 6 10 10 12 11 10 10 9 9 10 10 9 8 7
6 5 5 5 4 4 4 5 5 4 4 4 3 3 4 5 6 4 3 3 4 9 12 12 12 10 11 10 11 12 10 9 8
7 5 5 6 5 5 4 5 5 4 4 3 4 3 4 4 5 6 5 5 3 4 9 11 10 9 10 12 12 12 14 13 12
7 6 6 6 5 6 5 5 4 4 4 4 4 5 5 4 5 6 5 5 3 4 5 6 7 12 11 12 13 12 11 15 15
8 7 7 7 7 7 8 6 7 5 4 3 4 6 7 7 6 5 5 3 3 3 2 2 3 4 11 11 12 13 13 10 15
7 7 6 7 6 7 7 7 4 4 4 3 2 3 3 5 6 2 1 2 1 1 1 3 3 3 2 7 2 7 11 14 12
6 7 7 7 6 5 6 6 8 5 5 5 4 1 4 2 3 1 1 1 2 3 3 3 4 3 2 3 3 6 9 11 13
5 5 7 7 5 7 6 6 7 7 6 3 6 6 3 2 2 3 2 2 1 3 3 3 4 5 4 4 10 11 10 10 10
5 6 7 7 6 6 7 7 8 7 7 6 3 5 4 3 3 3 2 3 3 3 3 4 4 5 5 5 8 12 10 9 9
Wind_Direction
99 103 104 104 103 98 93 94 93 90 91 91 80 55 1 318 51 69 66 58 54 51 50 51 49 48 53 48 52 57 51 51 48
107 110 112 111 106 98 92 87 91 90 88 90 74 28 347 61 68 67 65 59 53 51 50 50 49 49 50 48 47 46 48 50 48
117 115 117 114 108 100 92 89 91 91 88 85 71 17 352 82 74 79 69 58 57 53 51 50 49 48 49 48 49 50 52 52 52
126 120 116 116 113 108 104 99 98 105 100 94 81 22 330 68 56 77 75 64 62 59 55 53 54 51 53 52 51 54 55 56 54
131 127 118 115 117 117 114 106 101 99 97 88 84 279 272 93 99 76 78 71 66 63 58 54 55 55 54 56 57 58 59 59 57
156 130 136 129 125 126 125 120 115 116 106 108 197 263 264 80 59 93 93 80 74 71 66 64 62 60 58 59 58 63 64 64 61
170 141 146 138 139 131 131 134 153 206 167 161 215 240 143 74 58 96 113 106 96 90 81 75 69 64 61 62 61 63 65 66 67
158 141 153 149 172 165 171 171 209 195 234 173 229 296 48 190 106 114 131 152 155 132 117 98 86 74 70 70 65 66 70 73 74
173 167 165 182 188 169 232 205 161 195 221 241 240 234 246 244 65 132 150 188 241 198 170 150 139 121 97 89 81 79 75 81 82
171 177 178 187 172 183 199 222 203 216 214 222 243 244 251 233 263 159 159 183 228 249 212 190 187 182 157 130 120 109 95 96 93
180 179 176 186 184 205 213 206 221 233 235 232 212 230 223 243 240 280 171 181 207 231 241 220 205 201 190 173 162 165 156 146 124
186 200 186 199 191 213 204 223 253 246 246 254 250 223 241 221 232 248 274 177 193 211 230 239 227 212 208 203 192 193 186 180 174
192 203 203 202 199 204 210 216 218 231 232 236 228 228 225 248 243 237 234 234 252 199 215 230 242 230 223 221 211 204 201 195 194
205 205 204 201 195 204 216 216 227 219 231 243 253 247 245 242 248 259 256 238 224 274 180 207 226 247 240 234 235 223 204 202 200
205 217 208 195 198 212 209 225 209 236 240 245 248 252 248 246 256 257 244 236 216 232 262 187 212 214 231 242 251 253 230 209 206
206 222 215 207 212 218 216 210 229 212 237 271 255 240 240 242 244 231 243 248 176 250 273 259 277 193 210 226 241 254 265 254 218
218 218 228 224 214 231 227 219 214 235 214 230 261 280 243 203 220 242 316 291 27 238 275 305 303 316 323 52 268 291 284 279 266
251 235 229 230 222 220 222 219 211 227 209 213 243 189 231 51 110 159 9 239 81 55 54 14 18 8 351 28 350 347 318 295 285
225 245 256 247 217 224 222 216 218 211 231 162 234 260 310 252 269 130 170 84 77 65 86 52 48 28 28 43 48 3 337 317 305
206 217 231 243 237 223 226 212 220 220 221 223 152 216 233 239 240 247 230 145 103 90 57 50 38 41 32 30 23 6 356 342 333